Regional Weather Roundup
Issued by NWS Charleston, SC

Home | Current Version | Previous Version | Text Only | Print | Product List | Glossary On
Versions: 1 2 3 4 5 6 7 8 9 10 11 12 13 14 15 16 17 18 19 20 21 22 23 24 25 26 27 28 29 30 31 32 33 34 35 36 37 38 39 40 41 42 43 44 45 46 47 48 49 50
000
ASUS42 KCHS 221326
RWRCHS

REGIONAL WEATHER ROUNDUP
NATIONAL WEATHER SERVICE CHARLESTON SC
900 AM EDT FRI SEP 22 2017

NOTE: "FAIR" INDICATES FEW OR NO CLOUDS BELOW 12,000 FEET WITH NO
SIGNIFICANT WEATHER AND/OR OBSTRUCTIONS TO VISIBILITY.

NOT ALL STATIONS ARE QUALITY CONTROLLED. USE DATA WITH CAUTION...
ESPECIALLY DEWPOINT OBSERVATIONS.

SCZ027-030-031-034>040-042>050-221400-
...SOUTHEAST SOUTH CAROLINA...

CITY           SKY/WX    TMP DP  RH WIND       PRES   REMARKS
N CHARLESTON   PTSUNNY   73  72  94 NE6       30.05R FOG
WATERFRONT PRK   N/A     74  72  93 N6        29.89R
JOHNS ISLAND   FAIR      77  73  88 CALM      30.05S FOG
PINOPOLIS        N/A     72  70  94 E5        29.98R
MONCKS CORNER  FAIR      70  70 100 NE3       30.06R
SUMMERVILLE    FAIR      72  68  88 CALM      30.07R
BEAUFORT MCAS  MOSUNNY   76  75  97 NE6       30.05R FOG
BEAUFORT ARPT  CLOUDY    73  73 100 N3        30.04S FOG
HILTON HEAD IS SUNNY     77  77 100 N8        30.05R
WALTERBORO     PTSUNNY   72  68  88 CALM      30.07R
ALLENDALE      NOT AVBL

...SOUTHERN MIDLANDS AND PEE DEE...

CITY           SKY/WX    TMP DP  RH WIND       PRES   REMARKS
GEORGETOWN     CLOUDY    72  70  94 NE5       30.07R
KINGSTREE      FAIR      70  68  94 CALM      30.07S
ORANGEBURG     SUNNY     72  66  81 NE5       30.07R
BARNWELL       FAIR      73  72  94 CALM      30.06S
AIKEN          FAIR      70  66  88 CALM      30.10S
MANNING        FAIR      70  59  68 MISG      30.08R
COLUMBIA       MOSUNNY   74  68  81 CALM      30.07R
SUMTER         SUNNY     71  67  85 NE5       30.06R
FLORENCE       SUNNY     70  68  93 E5        30.08R
MYRTLE BEACH   SUNNY     74  67  78 N3        30.07S
N MYRTLE BEACH SUNNY     74  67  78 NE5       30.06R

$$

GAZ063-065-086>088-099>101-113>116-118-119-134>141-150-221400-
...SOUTHEAST GEORGIA...

CITY           SKY/WX    TMP DP  RH WIND       PRES   REMARKS
SAVANNAH ARPT  MOSUNNY   75  72  90 N5        30.05R FOG
HUNTER AAF     SUNNY     75  73  93 NE6       30.02R
FORT STEWART   MOSUNNY   72  72 100 N3        30.02S FOG
STATESBORO     SUNNY     73  67  81 CALM      30.05S
SYLVANIA       SUNNY     72  71  95 CALM      30.06S
CLAXTON        FOG       72  71  98 CALM      30.05S VSB 1/2

...CSRA...CENTRAL AND FAR SOUTHEAST GEORGIA...

CITY           SKY/WX    TMP DP  RH WIND       PRES   REMARKS
THOMSON        SUNNY     71  66  84 CALM      30.12S
AUGUSTA-BUSH   SUNNY     74  69  85 CALM      30.05S
AUGUSTA-DANIEL SUNNY     76  67  73 CALM      30.07S
SWAINSBORO     FAIR      72  72 100 CALM      30.07R
VIDALIA        FOG       72  72 100 CALM      30.05S VSB<1/4
EASTMAN        FAIR      71  71 100 CALM      30.08R
HAZLEHURST     CLOUDY    73  71  94 CALM      30.04R FOG
ALMA           MOSUNNY   74  72  93 CALM      30.04R FOG
WAYCROSS       SUNNY     72  69  90 CALM      30.04R FOG
JESUP          NOT AVBL
BAXLEY         FOG       70  70 100 NE3       30.04S VSB 1/2
BRUNSWICK      MOSUNNY   75  72  88 N5        30.03S
SAINT SIMONS   SUNNY     80  76  87 N6        30.01S

$$

SCZ027-028-034-036>038-045-046-048>050-GAZ119-141-221400-
...LAKE AND SUPPLEMENTAL COASTAL OBSERVATIONS...

STATION/POSITION TIME  TEMP    WIND        PRES    WAVE   SWELL
                       AIR SEA DIR/SP/G            HT/PER HT/PER/DIR
                 (UTC) (F)     (DEG/KT/KT) (MB)    (FT/S) (FT/S/D)
WINYAH BAY       NOT AVBL
LAKE MURRAY      1220   72      40/  2/  4 1017.6
ACE BASIN NERRS  1145   70        CALM     1017.0
FORT PULASKI     1242   76 80   20/  6/  8 1017.6R
SAPELO ISLAND    1200   76        CALM     1016.0

$$

ANZ835-935-AMZ111-154-330-350-352-354-370-450-454-472-221400-
...C-MAN AND BUOY OBSERVATIONS...

STATION/POSITION TIME  TEMP    WIND        PRES    WAVE   SWELL
                       AIR SEA DIR/SP/G            HT/PER HT/PER/DIR
                 (UTC) (F)     (DEG/KT/KT) (MB)    (FT/S) (FT/S/D)
BUOY 41004       1250   80 82   40/ 10/ 12 1016.5S   3/10   3/120/10
BUOY 41008       1150   80 80   60/ 10/ 12 1016.0    3/10   2/140/10
FOLLY BEACH CMAN 1200   75     360/  5/  7 1017.8R
CAPERS NEARSHORE 1208   76 81   40/  8/ 10 1017.0R
FRIPP NEARSHORE  1208   79      30/ 10/ 10 1023.7R


STATION/POSITION TIME  TEMP    WIND        PRES    WAVE   SWELL
                       AIR SEA DIR/SP/G            HT/PER HT/PER/DIR
                 (UTC) (F)     (DEG/KT/KT) (MB)    (FT/S) (FT/S/D)
5E ST. MARYS GA  1230      82                N/A     3/11   2/110/11
FRYING PAN BUOY  1250   79 82   30/  6/  8 1016.8R   3/10   3/100/10
BUOY 41025       1250   75 76  340/  6/  6 1017.6R   5/11   5/ 60/11
CAPE LOOKOUT NC  1200   77      80/  5/  6 1017.3R
BUOY 41002       1250   78 80   30/  4/  4 1016.8R   5/11   5/ 90/11
BUOY 41010       1250          110/ 16/ 17 1014.4R   5/11   5/11
ST AUGUSTINE FL  1200   81 82   30/ 16/ 17 1015.2R


$$




USA.gov is the U.S. government's official web portal to all federal, state and local government web resources and services.